Hourly Data Report for October 30, 2016

All times are specified in Local Standard Time (LST). Add 1 hour to adjust for Daylight Saving Time where and when it is observed.

POND INLET A
NUNAVUT

72°41'22.000" N
77°58'08.000" W
61.60 m
2403206
71095
YIO

Related Data

No related data is available for this station

Download Data

Hourly Data (October 2016)
Hourly Data Report for October 30, 2016
Temp Definition
°C
Dew Point Temp Definition
°C
Rel Hum Definition
%
Wind Dir Definition
10's deg

Wind Spd Definition
km/h
Visibility Definition
km
Stn Press Definition
kPa
Hmdx Definition


Wind Chill Definition


Weather Definition


TIME
00:00 Legend Double Dagger -3.0 -3.7 95 6 41 1.2 100.23   -11 Snow
01:00 Legend Double Dagger -3.2 -3.9 95 6 52 1.2 100.22   -13 Snow
02:00 Legend Double Dagger -3.3 -4.3 93 7 45 2.0 100.28   -12 Snow
03:00 Legend Double Dagger -3.4 -4.7 91 6 41 2.0 100.27   -12 Snow
04:00 Legend Double Dagger -3.7 -5.1 90 6 37 2.0 100.28   -12 Snow
05:00 Legend Double Dagger -3.5 -6.3 81 6 34 8.1 100.29   -11 Snow
06:00 Legend Double Dagger -3.7 -7.0 78 7 41 9.7 100.28   -12 Snow
07:00 Legend Double Dagger -3.6 -7.8 73 7 48 4.8 100.26   -13 Snow
08:00 Legend Double Dagger -4.0 -9.6 65 7 48 3.6 100.27   -13 Snow
09:00 Legend Double Dagger -4.1 -9.1 68 7 26 16.1 100.32   -11 LegendNANA
10:00 Legend Double Dagger -3.9 -10.4 61 7 39 16.1 100.27   -13 LegendNANA
11:00 Legend Double Dagger -3.9 -11.1 58 7 34 16.1 100.29   -12 LegendNANA
12:00 Legend Double Dagger -3.9 -11.5 56 8 39 16.1 100.25   -13 LegendNANA
13:00 Legend Double Dagger -4.3 -11.3 59 8 46 14.5 100.22   -14 LegendNANA
14:00 Legend Double Dagger -5.1 -10.9 64 8 35 16.1 100.27   -14 LegendNANA
15:00 Legend Double Dagger -5.4 -9.8 72 7 39 12.9 100.24   -15 Snow
16:00 Legend Double Dagger -5.5 -10.0 71 6 32 16.1 100.29   -14 LegendNANA
17:00 Legend Double Dagger -5.6 -10.4 69 7 34 16.1 100.25   -14 LegendNANA
18:00 Legend Double Dagger -5.6 -10.3 70 6 34 16.1 100.22   -14 LegendNANA
19:00 Legend Double Dagger -5.6 -11.7 62 7 39 16.1 100.18   -15 LegendNANA
20:00 Legend Double Dagger -6.1 -12.2 63 7 21 16.1 100.20   -13 LegendNANA
21:00 Legend Double Dagger -6.4 -12.8 61 7 22 16.1 100.15   -14 LegendNANA
22:00 Legend Double Dagger -6.6 -13.8 57 11 13 16.1 100.16   -12 LegendNANA
23:00 Legend Double Dagger -7.0 -12.6 65 7 13 16.1 100.10   -13 LegendNANA

Notes on Data Quality.

Legend

  • E = Estimated
  • M = Missing
  • NA = Not Available
  • ‡ = Partner data that is not subject to review by the National Climate Archives
Date modified: